Location: *
(38.8181°S, 103.0319°E)
Time: 13:53:39
(UTC+00:00)

Daily predictions for brighter satellites

Satellite Brightness Start Highest point End
(mag) Time Altitude Azimuth Time Altitude Azimuth Time Altitude Azimuth
IDEFIX/ARIANE 42P 4.5 12:00:05 10° S 12:04:51 34° WSW 12:09:35 10° NW
Cosmos 2098 Rocket 3.7 12:00:17 10° S 12:04:58 78° W 12:10:54 10° N
Cosmos 1680 Rocket 3.5 12:01:24 10° N 12:06:29 57° ENE 12:11:39 10° SSE
USA 234 4.2 12:10:29 16° E 12:14:04 25° ENE 12:19:17 10° N
COSMOS 2406 4.1 12:10:49 10° NNE 12:15:22 25° ENE 12:19:56 10° SE
ATLAS 3B R/B 2.9 12:08:07 10° SSW 12:15:27 75° SE 12:23:01 10° NE
Cosmos 2263 4.1 12:13:06 10° SSW 12:18:50 84° ESE 12:24:28 10° NNE
CZ-4C R/B 4.4 12:14:32 10° WSW 12:18:54 24° WNW 12:22:57 10° NNW
ATLAS 2AS CENTAUR R/B 3.3 12:12:38 10° NW 12:18:55 53° SW 12:24:54 10° SSE
Cosmos 2016 Rocket 4.1 12:13:54 10° S 12:20:15 56° E 12:26:28 10° NNE
Cosmos 1271 Rocket 3.7 12:18:14 10° SSW 12:22:04 51° W 12:25:54 10° N
OTV 4 0.3 12:21:16 10° W 12:24:10 71° N 12:24:46 50° ENE
Cosmos 1656 Rocket 4.5 12:21:40 10° S 12:26:45 32° ESE 12:28:33 26° E
Meteor 2-5 Rocket 3.8 12:21:11 10° N 12:27:11 87° E 12:33:13 10° S
Cosmos 923 Rocket 4.3 12:22:08 10° NNW 12:27:24 69° WSW 12:32:41 10° SSE
Cosmos 1943 Rocket 2.1 12:22:13 10° SSW 12:27:47 70° ESE 12:32:22 15° NNE
Gbstr 26 Del rocket 4.3 12:24:09 10° N 12:28:12 28° NE 12:28:52 28° ENE
NOAA 12 4.1 12:23:07 10° SSE 12:28:31 65° ENE 12:33:49 10° N
Cosmos 1725 Rocket 4.3 12:23:20 10° S 12:29:28 45° ESE 12:34:26 15° NE
Cosmos 1842 Rocket 3.5 12:28:24 10° S 12:32:58 69° E 12:37:20 11° NNE
Cosmos 2100 Rocket 4.3 12:32:16 10° SSW 12:38:29 70° W 12:44:42 10° N
ALOS 2.4 12:34:18 10° SSE 12:38:54 48° E 12:43:26 10° N
FREGAT/IRIS 2.5 12:37:18 10° SSE 12:40:29 81° ENE 12:43:37 10° N
In-Cosmos 22 4.4 12:36:58 10° NNE 12:42:03 43° E 12:47:17 10° SSE
SL-08 R/B 4.4 12:36:16 10° S 12:42:30 69° E 12:48:44 10° NNE
Cosmos 1707 4.2 12:40:41 10° NNW 12:44:21 40° W 12:48:04 10° S
FengYun 1-2 T 4.3 12:45:22 10° SSE 12:50:47 51° E 12:56:09 10° N
NOSS 3-2 (A) 3.9 12:45:51 10° SSW 12:52:07 44° SE 12:53:30 38° E
METEOR-M 4.5 12:51:37 10° S 12:56:59 66° WSW 13:02:18 10° NNW
GPS 2-04 Rocket1 3.9 12:54:40 10° W 12:58:15 31° NNW 12:58:26 31° NNW
Cosmos 389 Rocket 3.3 12:56:13 10° SSW 12:59:40 49° W 13:00:45 35° NNW
Atlas Centaur 2 3.7 12:52:34 10° NW 13:00:03 35° NNE 13:01:50 32° NE
ATLAS CENTAUR R/B 3.3 13:00:14 10° WNW 13:03:48 30° SW 13:07:37 10° SSE
GP-B 3.4 13:03:27 10° S 13:07:58 68° W 13:11:13 18° NNW
USA 238 DEB 3.9 13:04:20 10° SW 13:11:26 72° WNW 13:14:58 32° NNE
USA 238 3.9 13:04:25 10° SW 13:11:31 72° WNW 13:15:01 32° NNE
Resurs 01 Rocket 3.7 13:12:14 10° SSE 13:13:14 16° SSE 13:13:14 16° SSE
Okean 3 Rocket 4.0 13:24:53 63° SW 13:24:53 63° SW 13:29:07 10° S
SJ-6B 4.4 13:22:29 10° S 13:26:08 34° WSW 13:29:40 10° NW
Cosmos 2221 3.5 13:22:18 10° S 13:25:14 42° SSW 13:25:14 42° SSW
COSMOS 2455 3.3 13:21:00 10° SSW 13:26:05 46° SSE 13:26:05 46° SSE
OAO 3 Rocket 4.1 13:23:59 10° WNW 13:27:35 42° NW 13:27:35 42° NW
Cosmos 1624 Rocket 4.1 13:25:20 10° SSW 13:30:40 78° W 13:30:40 78° W
Cosmos 2233 Rocket 3.9 13:27:52 10° S 13:34:18 90° N 13:34:52 76° N
Cosmos 2056 Rocket 3.8 13:33:14 10° SSW 13:37:42 62° WSW 13:37:42 62° WSW
GEOS 3 Rocket 4.1 13:40:48 53° NW 13:40:59 53° WNW 13:46:12 10° SW
NOSS 3-2 (C) 3.6 13:36:10 10° SSW 13:42:01 66° S 13:42:01 66° S
CENTAUR R/B 3.9 13:41:12 10° SSW 13:44:48 24° SSE 13:44:48 24° SSE
USA 234 3.3 13:57:56 77° W 13:57:56 77° W 14:04:04 10° NW
COSMOS 2406 4.3 13:54:00 10° NW 13:59:22 43° WSW 14:04:48 10° S
NOSS 3-4 (A) 4.3 13:58:25 10° NW 14:06:08 61° SW 14:13:44 10° SSE
NOSS 3-4 (C) 4.3 13:58:30 10° NW 14:06:14 61° SW 14:13:51 10° SSE
ATLAS 2AS CENTAUR R/B 4.4 19:56:25 21° ENE 19:56:25 21° ENE 19:58:36 10° NE
USA 267 3.8 20:04:31 10° SE 20:09:34 54° SSE 20:09:34 54° SSE
Cosmos 2263 Rocket 4.4 20:21:16 14° NE 20:24:06 19° E 20:28:01 10° SE
SL-16 R/B 2.8 20:18:45 10° SSE 20:24:21 65° ESE 20:24:21 65° ESE
Cosmos 1455 Rocket 4.4 20:42:47 37° E 20:42:47 37° E 20:46:48 10° SSE
USA 234 4.0 20:38:24 10° ENE 20:44:39 48° SE 20:49:49 16° SSW
MOZ.5/SAFIR/RUBIN 5/SL-8 4.4 20:45:52 10° SSE 20:50:36 53° E 20:50:40 53° ENE
Cosmos 1975 3.3 21:11:08 56° SE 21:11:08 56° SE 21:14:31 10° SSE
Cosmos 968 Rocket 3.5 21:10:09 57° N 21:11:14 80° ENE 21:16:34 10° SSE
NOAA 6 4.1 21:07:00 10° NNE 21:12:09 76° ESE 21:17:24 10° S
Cosmos 783 Rocket 4.4 21:08:26 10° SSW 21:13:49 78° WNW 21:19:06 10° NNE
Cosmos 2074 Rocket 3.9 21:14:32 46° NNW 21:16:25 71° W 21:22:43 10° S
Cosmos 2297 Rocket 4.4 21:17:51 11° SSW 21:17:51 11° SSW 21:18:46 10° SSW
Feng Yun 1-1 Rocket 4.2 21:21:36 56° WNW 21:21:53 56° WNW 21:27:16 10° SSW
CZ-3 R/B 4.3 20:44:51 10° W 21:23:55 40° NW 21:34:20 10° NNE
ATLAS CENTAUR R/B 1.7 21:28:36 58° W 21:29:11 63° WNW 21:34:02 10° NNE
Cosmos 2084 Rocket 4.4 21:31:02 24° N 21:33:33 51° ENE 21:38:12 10° SE
Cosmos 1743 3.1 21:34:08 14° N 21:37:17 65° E 21:41:10 10° SSE
NOSS 3-4 (A) 4.4 21:33:58 10° SSW 21:40:58 53° SE 21:47:27 10° NE
NOSS 3-4 (C) 4.5 21:34:05 10° SSW 21:41:04 53° SE 21:47:33 10° NE
Meteor 1-12 Rocket 4.3 21:37:26 18° NNW 21:41:53 65° W 21:47:56 10° S
IDEFIX/ARIANE 42P 4.2 21:37:48 10° NE 21:42:34 36° ESE 21:47:24 10° S
ATLAS 2AS CENTAUR R/B 3.5 21:44:02 27° NW 21:44:02 27° NW 21:48:22 10° N
Lacrosse 4 Rocket 4.2 21:42:53 10° NNE 21:46:06 20° ENE 21:49:23 10° ESE
BREEZE-M DEB (TANK) 3.9 21:45:16 20° SW 21:46:44 26° S 21:53:04 10° ESE
Cosmos 1544 Rocket 4.5 21:47:45 30° WSW 21:47:45 30° WSW 21:51:07 10° SSW
Cosmos 1603 4.3 21:49:08 27° WSW 21:50:57 33° WNW 21:55:53 10° NNW
USA 267 4.5 21:48:02 10° SSE 21:53:24 27° SSW 21:56:55 17° WSW
Cosmos 1500 4.4 21:57:55 26° WSW 21:57:55 26° WSW 22:00:41 10° SSW
Nadezhda 3 Rocket 3.9 21:51:24 10° S 21:57:41 75° W 22:03:50 10° N
Cosmos 1943 3.2 21:53:50 10° SSW 21:59:29 62° WNW 22:05:06 10° N
Cosmos 1626 Rocket 3.5 21:58:04 10° SSW 22:02:28 62° W 22:06:50 10° N
Cosmos 292 Rocket 3.8 21:59:41 10° SSW 22:04:32 84° ESE 22:09:20 10° NNE
Delta 2 Rocket 3.5 22:03:14 30° WNW 22:04:45 51° N 22:08:50 10° ENE
Iridium 2 4.1 22:01:36 10° N 22:05:28 68° E 22:09:23 10° S
CZ-2C R/B 4.2 22:01:02 10° SSE 22:05:53 69° ENE 22:10:36 10° N
Cosmos 2263 Rocket 2.3 22:03:02 15° NW 22:07:32 54° WSW 22:13:06 10° SSE
SL-16 R/B 3.9 22:03:49 10° SSW 22:08:01 19° WSW 22:09:26 18° WSW
CZ-2C R/B 3.1 22:03:23 10° NNE 22:08:10 55° ESE 22:12:51 10° S
Cosmos 962 Rocket 4.5 22:03:26 10° NNW 22:09:48 72° W 22:16:14 10° S
Ariane Rocket 2.9 22:04:44 10° N 22:09:49 77° WNW 22:15:00 10° SSW
Cosmos 1602 Rocket 3.7 22:06:17 10° SSW 22:10:35 51° W 22:14:50 10° N
Centaur D AC-29 4.4 22:06:23 17° WNW 22:10:36 19° NW 22:15:47 10° N
Tiangong 1 1.2 22:13:08 24° WSW 22:14:39 61° SSE 22:17:34 10° E
Cosmos 1777 Rocket 4.3 22:15:39 10° NW 22:20:43 48° WSW 22:25:51 10° S
CZ-4 R/B 2.2 22:17:32 10° NNE 22:21:26 55° ESE 22:25:26 10° S
Cosmos 1900 4.4 22:17:42 10° NW 22:22:50 74° WSW 22:27:58 10° SSE
YAOGAN 1 3.8 22:23:16 10° NE 22:27:26 46° ESE 22:31:39 10° S
USA 234 3.5 22:21:17 10° NNE 22:27:35 50° NW 22:33:58 10° SW
Cosmos 1680 Rocket 3.6 22:30:50 10° SSW 22:36:12 88° ESE 22:41:32 10° NNE
Meteor 1-15 Rocket 4.5 22:31:03 10° N 22:36:53 81° E 22:42:41 10° SSE
Blok-L 3.6 22:30:43 10° NW 22:38:47 83° WSW 22:41:42 10° SSE
OE (NEXTSAT) 4.4 22:36:39 10° WNW 22:40:14 86° NNE 22:43:52 10° ESE
USA 32 4.1 22:36:11 10° SSW 22:41:23 56° W 22:46:31 10° NNW
CSL-04 Debris 4.4 22:38:59 10° N 22:44:18 49° W 22:49:42 10° SSW
SL-8 Rocket 4.0 22:38:55 10° NNW 22:45:01 62° W 22:51:14 10° S
CORIOLIS 4.3 22:40:48 10° NNE 22:46:11 83° ESE 22:51:39 10° SSW
Cosmos 1758 Rocket 3.7 22:44:19 10° S 22:48:51 90° ESE 22:53:22 10° N
SMAP 3.1 22:46:12 10° N 22:50:52 75° WNW 22:55:37 10° SSW
EO 1 Del DPAF 4.4 22:50:27 10° SSW 22:53:41 25° WSW 22:56:53 10° NW
COSMOS 2406 3.6 22:50:11 10° SSW 22:55:57 75° ESE 23:01:42 10° NNE
Cosmos 1844 4.4 22:51:07 10° N 22:56:36 61° ENE 23:02:08 10° SSE
Cosmos 923 Rocket 4.4 22:52:13 10° SSW 22:57:11 44° WNW 23:02:07 10° N
